EN

Hourly Weather Troits'ke

Today, 17 April, Saturday

Time Temperature Precipitation Wind Pressure Humidity
00:00 +5°C° 0.1 mm 2 mps 751 mmHg 92%
01:00 +5°C° 0.1 mm 2 mps 751 mmHg 93%
02:00 +4°C° 0 mm 2 mps 751 mmHg 95%
03:00 +4°C° 0 mm 2 mps 752 mmHg 93%
04:00 +4°C° 0 mm 2 mps 752 mmHg 92%
05:00 +3°C° 0 mm 2 mps 752 mmHg 90%
06:00 +4°C° 0 mm 3 mps 752 mmHg 82%
07:00 +5°C° 0 mm 3 mps 752 mmHg 74%
08:00 +7°C° 0 mm 4 mps 753 mmHg 66%
09:00 +7°C° 0 mm 4 mps 753 mmHg 64%
10:00 +8°C° 0 mm 4 mps 753 mmHg 61%
11:00 +8°C° 0 mm 5 mps 753 mmHg 59%
12:00 +9°C° 0 mm 5 mps 753 mmHg 56%
13:00 +10°C° 0 mm 5 mps 753 mmHg 53%
14:00 +12°C° 0 mm 5 mps 753 mmHg 51%
15:00 +12°C° 0 mm 4 mps 753 mmHg 52%
16:00 +12°C° 0 mm 4 mps 753 mmHg 52%
17:00 +11°C° 0 mm 3 mps 753 mmHg 53%
18:00 +10°C° 0 mm 2 mps 753 mmHg 57%
19:00 +10°C° 0 mm 1 mps 753 mmHg 60%
20:00 +8°C° 0 mm 0 mps 753 mmHg 64%
21:00 +9°C° 0 mm 1 mps 753 mmHg 66%
22:00 +9°C° 0 mm 1 mps 753 mmHg 67%
23:00 +9°C° 0 mm 1 mps 753 mmHg 68%

Tomorrow, 18 April, Sunday

Time Temperature Precipitation Wind Pressure Humidity
00:00 +7°C° 0 mm 2 mps 753 mmHg 69%
01:00 +7°C° 0 mm 2 mps 753 mmHg 71%
02:00 +7°C° 0 mm 2 mps 753 mmHg 72%
03:00 +7°C° 0 mm 2 mps 753 mmHg 74%
04:00 +6°C° 0 mm 2 mps 753 mmHg 75%
05:00 +6°C° 0 mm 2 mps 753 mmHg 76%
06:00 +8°C° 0 mm 2 mps 753 mmHg 70%
07:00 +9°C° 0 mm 3 mps 753 mmHg 63%
08:00 +11°C° 0 mm 3 mps 752 mmHg 57%
09:00 +12°C° 0 mm 3 mps 752 mmHg 53%
10:00 +13°C° 0 mm 4 mps 752 mmHg 49%
11:00 +14°C° 0 mm 4 mps 752 mmHg 45%
12:00 +15°C° 0 mm 4 mps 752 mmHg 44%
13:00 +15°C° 0 mm 4 mps 751 mmHg 42%
14:00 +16°C° 0 mm 3 mps 751 mmHg 40%
15:00 +16°C° 0 mm 3 mps 751 mmHg 42%
16:00 +14°C° 0 mm 3 mps 751 mmHg 44%
17:00 +14°C° 0 mm 3 mps 750 mmHg 46%
18:00 +13°C° 0 mm 3 mps 751 mmHg 53%
19:00 +13°C° 0 mm 2 mps 751 mmHg 59%
20:00 +10°C° 0 mm 2 mps 751 mmHg 66%
21:00 +10°C° 0 mm 2 mps 751 mmHg 68%
22:00 +10°C° 0 mm 2 mps 750 mmHg 71%
23:00 +10°C° 0 mm 2 mps 750 mmHg 74%

Day after tomorrow, 19 April, Monday

Time Temperature Precipitation Wind Pressure Humidity
00:00 +10°C° 0.2 mm 2 mps 750 mmHg 78%
01:00 +9°C° 0.2 mm 2 mps 750 mmHg 82%
02:00 +9°C° 0.2 mm 2 mps 750 mmHg 86%
03:00 +9°C° 0.6 mm 2 mps 749 mmHg 88%
04:00 +9°C° 0.6 mm 3 mps 749 mmHg 90%
05:00 +9°C° 0.6 mm 3 mps 749 mmHg 93%
06:00 +9°C° 0.1 mm 3 mps 749 mmHg 92%
07:00 +9°C° 0.1 mm 3 mps 749 mmHg 91%
08:00 +9°C° 0.1 mm 3 mps 749 mmHg 90%
09:00 +10°C° 0 mm 3 mps 749 mmHg 85%
10:00 +11°C° 0 mm 3 mps 748 mmHg 81%
11:00 +13°C° 0 mm 2 mps 748 mmHg 76%
12:00 +14°C° 0 mm 2 mps 748 mmHg 74%
13:00 +14°C° 0 mm 2 mps 748 mmHg 72%
14:00 +14°C° 0 mm 1 mps 748 mmHg 69%
15:00 +14°C° 0 mm 2 mps 747 mmHg 72%
16:00 +14°C° 0 mm 2 mps 747 mmHg 74%
17:00 +14°C° 0 mm 2 mps 747 mmHg 76%
18:00 +13°C° 0 mm 2 mps 747 mmHg 79%
19:00 +12°C° 0 mm 3 mps 747 mmHg 81%
20:00 +11°C° 0 mm 3 mps 747 mmHg 84%
21:00 +11°C° 0 mm 3 mps 746 mmHg 86%
22:00 +11°C° 0 mm 3 mps 745 mmHg 88%
23:00 +11°C° 0 mm 3 mps 745 mmHg 89%

20 April, Tuesday

Time Temperature Precipitation Wind Pressure Humidity
00:00 +11°C° 0 mm 3 mps 744 mmHg 91%
01:00 +10°C° 0 mm 4 mps 743 mmHg 92%
02:00 +10°C° 0 mm 4 mps 743 mmHg 93%
03:00 +10°C° 1.3 mm 4 mps 742 mmHg 94%
04:00 +9°C° 1.3 mm 5 mps 741 mmHg 95%
05:00 +9°C° 1.3 mm 5 mps 740 mmHg 97%
06:00 +10°C° 1.1 mm 5 mps 739 mmHg 96%
07:00 +11°C° 1.1 mm 6 mps 738 mmHg 96%
08:00 +11°C° 1.1 mm 6 mps 737 mmHg 95%
09:00 +12°C° 0.2 mm 7 mps 736 mmHg 91%
10:00 +13°C° 0.2 mm 9 mps 735 mmHg 86%
11:00 +14°C° 0.2 mm 10 mps 734 mmHg 81%
12:00 +14°C° 0.2 mm 11 mps 735 mmHg 76%
13:00 +14°C° 0.2 mm 11 mps 735 mmHg 71%
14:00 +16°C° 0.2 mm 11 mps 736 mmHg 66%
15:00 +14°C° 0.2 mm 11 mps 736 mmHg 68%
16:00 +12°C° 0.2 mm 11 mps 736 mmHg 69%
17:00 +11°C° 0.2 mm 10 mps 737 mmHg 70%
18:00 +9°C° 0.1 mm 10 mps 737 mmHg 76%
19:00 +8°C° 0.1 mm 10 mps 737 mmHg 81%
20:00 +7°C° 0.1 mm 10 mps 737 mmHg 86%
21:00 +7°C° 0.2 mm 10 mps 738 mmHg 87%
22:00 +7°C° 0.2 mm 10 mps 739 mmHg 87%
23:00 +8°C° 0.2 mm 9 mps 740 mmHg 88%

21 April, Wednesday

Time Temperature Precipitation Wind Pressure Humidity
00:00 +7°C° 0.1 mm 9 mps 741 mmHg 87%
01:00 +7°C° 0.1 mm 8 mps 742 mmHg 87%
02:00 +7°C° 0.1 mm 8 mps 743 mmHg 87%
03:00 +7°C° 0.1 mm 8 mps 744 mmHg 85%
04:00 +8°C° 0.1 mm 7 mps 745 mmHg 84%
05:00 +8°C° 0.1 mm 7 mps 746 mmHg 82%
06:00 +8°C° 0 mm 7 mps 747 mmHg 80%
07:00 +9°C° 0 mm 6 mps 748 mmHg 77%
08:00 +9°C° 0 mm 6 mps 748 mmHg 74%
09:00 +10°C° 0.1 mm 6 mps 749 mmHg 69%
10:00 +11°C° 0.1 mm 6 mps 749 mmHg 63%
11:00 +14°C° 0.1 mm 6 mps 749 mmHg 57%
12:00 +14°C° 0.1 mm 6 mps 749 mmHg 54%
13:00 +15°C° 0.1 mm 6 mps 750 mmHg 51%
14:00 +15°C° 0.1 mm 6 mps 750 mmHg 48%
15:00 +15°C° 0 mm 6 mps 750 mmHg 51%
16:00 +14°C° 0 mm 5 mps 750 mmHg 54%
17:00 +14°C° 0 mm 4 mps 751 mmHg 57%
18:00 +13°C° 0.2 mm 4 mps 751 mmHg 63%
19:00 +12°C° 0.2 mm 3 mps 752 mmHg 69%
20:00 +11°C° 0.2 mm 3 mps 752 mmHg 75%
21:00 +10°C° 0.1 mm 2 mps 752 mmHg 78%
22:00 +10°C° 0.1 mm 2 mps 752 mmHg 82%
23:00 +9°C° 0.1 mm 2 mps 753 mmHg 85%

22 April, Thursday

Time Temperature Precipitation Wind Pressure Humidity
00:00 +9°C° 0 mm 2 mps 753 mmHg 85%
01:00 +10°C° 0 mm 1 mps 753 mmHg 85%
02:00 +10°C° 0 mm 1 mps 753 mmHg 86%
03:00 +10°C° 0.2 mm 1 mps 753 mmHg 86%
04:00 +10°C° 0.2 mm 1 mps 753 mmHg 87%
05:00 +9°C° 0.2 mm 2 mps 754 mmHg 88%
06:00 +11°C° 0.2 mm 1 mps 754 mmHg 81%
07:00 +12°C° 0.2 mm 1 mps 754 mmHg 75%
08:00 +13°C° 0.2 mm 1 mps 754 mmHg 68%
09:00 +14°C° 0.7 mm 1 mps 754 mmHg 62%
10:00 +15°C° 0.7 mm 1 mps 754 mmHg 57%
11:00 +16°C° 0.7 mm 2 mps 754 mmHg 51%
12:00 +17°C° 0.4 mm 2 mps 754 mmHg 49%
13:00 +17°C° 0.4 mm 2 mps 754 mmHg 48%
14:00 +17°C° 0.4 mm 2 mps 754 mmHg 47%
15:00 +18°C° 0 mm 1 mps 754 mmHg 47%
16:00 +18°C° 0 mm 1 mps 754 mmHg 48%
17:00 +18°C° 0 mm 1 mps 754 mmHg 49%
18:00 +16°C° 0 mm 1 mps 754 mmHg 52%
19:00 +15°C° 0 mm 1 mps 754 mmHg 55%
20:00 +14°C° 0 mm 1 mps 754 mmHg 59%
21:00 +13°C° 0 mm 2 mps 754 mmHg 64%
22:00 +13°C° 0 mm 2 mps 754 mmHg 69%
23:00 +12°C° 0 mm 2 mps 754 mmHg 74%
Show more

We Need Your Consent

Meteoprog and our Service Providers may store and access personal data such as cookies, device identifiers or other similar technologies on your device and process such data to personalise content and ads, as well as provide social media features and to analyse the traffic.

  • Store and/or access information on your device

    Cookies, device identifiers or other information can be stored or accessed on your device for the purposes indicated above.

  • Personalised ads and content, ad and content measurement, audience insights, and products development

    Ads and content can be personalised based on a profile. More data can be added to better personalise ads and content. Ad and content performance can be measured. Insights about the audience who saw the ads and content can be derived. Such data can be used to develop or improve user’s experience, systems and software.

By clicking ‘I Agree’ you will allow the use of indicated cookies, device identifiers, web beacons or other similar technologies. Your settings can be changed in the browser on your device.

For certain purposes, legitimate interests may be relied on, rather than consent. You can read more about this in our Privacy and Cookie Policy.